date,time,DOY,Ta_1_1_1,Pa_1_1_1,RH_1_1_1,LWin_1_1_1,LWout_1_1_1,SWin_1_1_1,SWout_1_1_1,PPFD_1_1_1,MWS_1_1_1,WD_1_1_1,SWC_1_1_1,Ts_1_1_1
[yyyy-mm-dd],[HH:MM],[ddd.ddd],[K],[Pa],[%],[W+1m-2],[W+1m-2],[W+1m-2],[W+1m-2],[µmol+1m-2s-1],[m+1s-1],[deg],[m+3m-3],[K]
2018-01-25,00:30,25.020,263.96000000000004,95267.966666666660,78.586333333333329,275.83566666666667,267.58233333333339,9.33333333333333237E-003,-0.71466666666666656,-1.00000000000000002E-003,0.40666666666666657,11.922333333333334,0.26999999999999980,273.26866666666683
2018-01-25,01:00,25.041,264.00566666666685,95271.899999999994,78.965666666666692,275.98466666666661,269.05099999999999,2.30000000000000066E-002,-0.58266666666666656,4.00000000000000008E-003,0.48000000000000004,18.288666666666664,0.26999999999999980,273.26900000000006
2018-01-25,01:30,25.062,264.07100000000014,95272.866666666669,78.894333333333350,276.18999999999994,269.98133333333340,6.83333333333333570E-002,-0.49566666666666676,1.86666666666666717E-002,0.20666666666666667,8.9780000000000015,0.26999999999999980,273.27166666666682
2018-01-25,02:00,25.083,264.16099999999994,95266.666666666672,78.462666666666649,276.30599999999998,270.42466666666661,0.14733333333333334,-0.39866666666666667,-3.00000000000000006E-003,0.0000000000000000,0.0000000000000000,0.26999999999999980,273.26900000000006
2018-01-25,02:30,25.104,264.15899999999993,95261.666666666672,78.756666666666661,276.60633333333334,270.97200000000004,8.43333333333333574E-002,-0.40233333333333332,-6.00000000000000012E-003,4.66666666666666619E-002,1.5443333333333333,0.26999999999999980,273.27033333333333
2018-01-25,03:00,25.124,264.21366666666671,95265.566666666666,79.582333333333338,276.76866666666666,271.13400000000001,8.93333333333333895E-002,-0.37766666666666665,2.00000000000000004E-003,0.14999999999999999,4.4223333333333334,0.26999999999999980,273.27066666666673
2018-01-25,03:30,25.145,264.26000000000016,95254.899999999994,80.610333333333344,276.95733333333322,271.37699999999995,0.11966666666666673,-0.31399999999999995,1.00000000000000002E-003,5.66666666666666707E-002,2.8333333333333335,0.26999999999999980,273.26766666666668
2018-01-25,04:00,25.166,264.25333333333350,95243.433333333334,80.967666666666659,276.95766666666663,271.49400000000003,0.12233333333333339,-0.29866666666666664,1.00000000000000002E-003,0.25666666666666665,15.010999999999999,0.26999999999999980,273.26900000000012
2018-01-25,04:30,25.187,264.23333333333341,95258.766666666663,81.298333333333332,276.95733333333334,271.61566666666670,0.12733333333333338,-0.27999999999999997,0.0000000000000000,2.66666666666666684E-002,1.4443333333333332,0.26999999999999980,273.26833333333349
2018-01-25,05:00,25.208,264.15899999999993,95262.333333333328,81.741333333333344,276.76133333333331,271.18666666666667,0.10500000000000005,-0.30666666666666664,0.0000000000000000,0.24000000000000002,16.189000000000000,0.26999999999999980,273.26966666666675
2018-01-25,05:30,25.229,264.07100000000014,95275.000000000000,82.004333333333335,276.53133333333335,270.42300000000000,0.11533333333333338,-0.29999999999999999,8.00000000000000017E-003,0.57666666666666655,14.521999999999998,0.26999999999999980,273.27433333333346
2018-01-25,06:00,25.249,263.96000000000004,95266.566666666666,82.266999999999996,276.15833333333336,269.57300000000004,0.10366666666666673,-0.35933333333333317,-1.00000000000000019E-002,1.1233333333333335,31.888666666666666,0.26999999999999980,273.26966666666681
2018-01-25,06:30,25.270,263.79333333333346,95270.000000000000,82.629999999999981,275.66200000000003,269.85866666666664,7.76666666666666755E-002,-0.29066666666666668,5.66666666666666794E-003,1.0133333333333334,24.666999999999998,0.26999999999999980,273.26966666666675
2018-01-25,07:00,25.291,263.66133333333323,95286.133333333331,83.045666666666676,275.19800000000009,270.30966666666671,6.86666666666666953E-002,-0.23866666666666678,0.0000000000000000,1.2633333333333330,37.033333333333331,0.26999999999999980,273.27200000000005
2018-01-25,07:30,25.312,263.44199999999995,95300.733333333337,83.613333333333358,274.51066666666668,270.08199999999999,6.66666666666664042E-004,-0.22900000000000009,-3.00000000000000006E-003,1.5666666666666669,46.444333333333326,0.26999999999999980,273.26633333333353
2018-01-25,08:00,25.333,263.36433333333332,95324.699999999997,83.909666666666681,274.04333333333335,269.93733333333336,-4.10000000000000017E-002,-0.20366666666666672,-8.99999999999999932E-003,0.48333333333333334,15.522333333333334,0.26999999999999980,273.26733333333345
2018-01-25,08:30,25.354,263.21100000000001,95330.333333333328,84.060999999999993,273.31766666666664,269.48200000000008,-0.10400000000000004,-0.17266666666666663,1.33333333333333307E-003,0.32666666666666672,15.933666666666666,0.26999999999999980,273.26666666666677
2018-01-25,09:00,25.374,263.11233333333331,95335.466666666660,84.434333333333342,272.95400000000001,269.39933333333335,-0.11366666666666671,-0.10900000000000006,-4.00000000000000008E-003,0.54333333333333333,11.433666666666669,0.26999999999999980,273.26966666666675
2018-01-25,09:30,25.395,263.04566666666670,95349.666666666672,84.387000000000000,272.64066666666662,269.30200000000002,-0.13766666666666666,-0.10800000000000005,-6.00000000000000012E-003,1.0700000000000001,22.288333333333334,0.26999999999999980,273.26733333333340
2018-01-25,10:00,25.416,263.04133333333351,95384.433333333334,84.142666666666656,272.55500000000001,269.28000000000003,-3.46666666666666720E-002,-6.53333333333333682E-002,-2.00000000000000004E-003,1.0933333333333333,24.455666666666666,0.26999999999999980,273.26800000000009
2018-01-25,10:30,25.437,263.13433333333325,95374.333333333328,83.981333333333325,272.79566666666670,269.66966666666661,-1.60000000000000003E-002,-7.40000000000000241E-002,3.00000000000000006E-003,0.60666666666666680,22.100000000000001,0.26999999999999980,273.27033333333333
2018-01-25,11:00,25.458,263.17866666666663,95352.533333333340,83.941666666666663,272.91499999999991,269.94266666666670,-1.26666666666666681E-002,-8.03333333333333538E-002,1.00000000000000002E-003,0.19666666666666668,7.3890000000000002,0.26999999999999980,273.27033333333344
2018-01-25,11:30,25.479,263.16699999999986,95345.666666666672,84.121000000000009,272.91599999999994,270.10666666666668,-4.73333333333333592E-002,-6.60000000000000309E-002,-5.00000000000000010E-003,0.12666666666666668,9.9556666666666676,0.26999999999999980,273.26600000000019
2018-01-25,12:00,25.499,263.08766666666679,95344.399999999994,84.343000000000018,272.73166666666668,270.12666666666661,-4.66666666666666757E-002,-0.11066666666666672,4.00000000000000008E-003,0.69333333333333347,31.088999999999999,0.26999999999999980,273.27133333333336
2018-01-25,12:30,25.520,263.18233333333330,95342.133333333331,83.653999999999982,272.56533333333334,269.92866666666663,1.06666666666666646E-002,-8.93333333333333618E-002,-7.00000000000000015E-003,5.66666666666666638E-002,5.3780000000000001,0.26999999999999980,273.26966666666681
2018-01-25,13:00,25.541,263.09366666666688,95360.033333333340,83.838999999999999,272.46833333333331,269.87666666666678,3.33333333333333355E-003,-0.10466666666666670,5.00000000000000010E-003,0.16000000000000003,13.033333333333333,0.26999999999999980,273.26433333333347
2018-01-25,13:30,25.562,263.03666666666675,95362.866666666669,83.787666666666667,272.35666666666674,269.75966666666665,0.14000000000000001,0.34166666666666667,1.2079999999999997,0.53333333333333333,29.766333333333339,0.26999999999999980,273.26833333333343
2018-01-25,14:00,25.583,262.95666666666671,95384.533333333340,83.925333333333327,272.14699999999993,269.73899999999998,1.4049999999999998,4.8606666666666660,13.499333333333333,0.45333333333333337,33.366333333333337,0.26999999999999980,273.26766666666680
2018-01-25,14:30,25.604,262.98133333333334,95380.199999999997,83.692333333333323,272.52900000000000,269.93533333333329,4.6226666666666665,16.256666666666668,42.207999999999998,1.2400000000000000,96.755666666666670,0.26999999999999980,273.26766666666674
2018-01-25,15:00,25.624,263.02566666666678,95399.666666666672,83.610333333333344,273.10366666666670,270.44200000000001,9.1636666666666677,32.431000000000004,84.026666666666671,1.1900000000000002,72.277666666666661,0.26999999999999980,273.26700000000000
2018-01-25,15:30,25.645,263.07533333333339,95408.233333333337,83.915999999999968,273.83066666666667,271.16399999999993,14.242000000000001,50.059999999999988,129.26366666666667,1.5433333333333334,90.355333333333334,0.26999999999999980,273.26833333333343
2018-01-25,16:00,25.666,263.20233333333334,95431.133333333331,83.900333333333336,274.70533333333333,272.10233333333338,18.837666666666664,65.869333333333330,170.69233333333332,1.6299999999999997,70.010999999999996,0.26999999999999980,273.26933333333341
2018-01-25,16:30,25.687,263.34899999999999,95434.100000000006,84.174666666666653,275.77166666666665,273.18900000000002,26.645333333333330,93.142666666666656,239.84033333333335,1.8900000000000006,96.221999999999994,0.26999999999999980,273.26866666666677
2018-01-25,17:00,25.708,263.56266666666664,95411.766666666663,84.355666666666636,277.06400000000008,274.39533333333333,31.336666666666666,109.71900000000002,284.10299999999995,2.0899999999999999,90.588333333333324,0.26999999999999980,273.26900000000012
2018-01-25,17:30,25.729,263.80133333333339,95376.133333333331,83.928000000000026,278.57400000000001,275.60133333333334,36.285666666666664,128.02766666666668,332.07866666666672,2.7399999999999998,91.244666666666689,0.26999999999999980,273.27100000000002
2018-01-25,18:00,25.749,263.84400000000005,95367.899999999994,84.334333333333319,278.34766666666673,275.66899999999998,35.791000000000011,124.51833333333333,324.04433333333327,4.0799999999999992,111.57700000000000,0.26999999999999980,273.26933333333341
2018-01-25,18:30,25.770,264.13000000000005,95342.966666666660,84.212000000000003,279.79633333333345,276.76300000000003,39.402999999999992,137.13833333333332,357.48433333333327,4.1600000000000010,98.810666666666677,0.26999999999999980,273.26933333333346
2018-01-25,19:00,25.791,264.47200000000004,95319.666666666672,84.049000000000021,281.09299999999996,277.52766666666668,34.890000000000001,122.38533333333335,320.12133333333333,3.7800000000000002,107.04466666666667,0.26999999999999980,273.27166666666676
2018-01-25,19:30,25.812,264.55133333333345,95289.300000000003,84.216000000000022,281.07833333333343,277.48133333333328,30.719666666666672,107.31066666666662,283.11233333333331,4.1400000000000006,106.51066666666665,0.26999999999999980,273.26900000000006
2018-01-25,20:00,25.833,264.90566666666678,95278.300000000003,84.255666666666642,282.97999999999990,278.46666666666658,38.379333333333328,134.65100000000001,350.12199999999996,2.1833333333333331,41.433333333333330,0.26999999999999980,273.26633333333342
2018-01-25,20:30,25.854,265.20933333333318,95277.666666666672,84.172333333333327,284.44166666666666,276.99233333333325,38.726999999999997,137.39566666666667,353.41666666666674,1.1000000000000001,56.055666666666660,0.26999999999999980,273.26333333333343
2018-01-25,21:00,25.874,265.50633333333337,95270.766666666663,84.150666666666666,285.43666666666667,275.65599999999995,28.487666666666669,102.74766666666665,266.15966666666674,0.53000000000000003,17.988666666666667,0.26999999999999980,273.27000000000004
2018-01-25,21:30,25.895,265.29533333333330,95252.433333333334,84.021000000000001,283.85866666666669,270.84800000000007,20.622333333333334,75.074666666666658,194.85166666666660,0.38666666666666666,4.8556666666666670,0.26999999999999980,273.26733333333334
2018-01-25,22:00,25.916,265.21533333333332,95252.699999999997,84.097666666666683,282.74866666666668,272.62666666666672,12.951666666666664,46.719000000000015,120.80133333333333,0.23000000000000001,5.7443333333333326,0.26999999999999980,273.27033333333350
2018-01-25,22:30,25.937,265.20666666666676,95265.466666666660,84.407333333333327,281.77533333333326,274.06033333333329,4.8209999999999997,16.961333333333336,47.496000000000002,0.81666666666666665,35.700666666666663,0.26999999999999980,273.27033333333344
2018-01-25,23:00,25.958,265.21766666666673,95268.699999999997,84.601000000000013,281.58966666666663,276.88900000000007,1.0966666666666667,3.4440000000000000,10.048666666666664,1.0600000000000001,33.611666666666665,0.26999999999999980,273.26700000000011
2018-01-25,23:30,25.979,265.26000000000016,95263.800000000003,84.721000000000004,281.56266666666670,277.01733333333340,0.14800000000000002,4.66666666666663756E-003,0.49499999999999988,0.62666666666666671,22.888999999999999,0.26999999999999980,273.26733333333340
2018-01-26,00:00,26.000,265.32099999999991,95254.000000000000,84.905333333333360,281.87200000000007,277.72899999999998,0.12800000000000006,-0.13466666666666668,7.00000000000000015E-003,8.66666666666666696E-002,3.9443333333333332,0.26999999999999980,273.26633333333342
